Time,TemperatureF,DewpointF,PressureIn,WindDirection,WindDirectionDegrees,WindSpeedMPH,WindSpeedGustMPH,Humidity,HourlyPrecipIn,Conditions,Clouds,dailyrainin,SoftwareType,DateUTC
2014-08-27 00:00:00,64.7,56.3,30.16,NE,51,0.0,0.0,74,0.00,,---,0.00,VWS V14.01,2014-08-27 04:00:00,
2014-08-27 00:01:00,64.8,56.4,30.16,NE,51,0.0,0.0,74,0.00,,---,0.00,VWS V14.01,2014-08-27 04:01:00,
2014-08-27 00:02:00,64.7,56.5,30.16,NE,51,0.0,0.0,75,0.00,,---,0.00,VWS V14.01,2014-08-27 04:02:00,
2014-08-27 00:03:00,64.0,56.8,30.14,NE,35,0.0,0.0,77,0.00,,---,0.00,VWS V14.01,2014-08-27 04:03:00,
2014-08-27 00:04:00,63.9,56.7,30.14,NE,35,0.0,0.0,78,0.00,,---,0.00,VWS V14.01,2014-08-27 04:04:00,
2014-08-27 00:05:00,63.9,56.8,30.14,NE,35,0.0,0.0,78,0.00,,---,0.00,VWS V14.01,2014-08-27 04:05:00,
2014-08-27 00:06:00,64.6,56.4,30.15,NE,51,0.0,0.0,75,0.00,,---,0.00,VWS V14.01,2014-08-27 04:06:00,
2014-08-27 00:07:00,63.9,56.9,30.14,NE,35,0.0,0.0,78,0.00,,---,0.00,VWS V14.01,2014-08-27 04:07:00,
2014-08-27 00:08:00,63.9,57.0,30.14,NE,45,2.8,3.0,78,0.00,,---,0.00,VWS V14.01,2014-08-27 04:08:00,
2014-08-27 00:09:00,64.6,56.4,30.15,NE,51,0.0,0.0,75,0.00,,---,0.00,VWS V14.01,2014-08-27 04:09:00,
2014-08-27 00:10:00,63.9,57.0,30.14,NNE,28,0.0,3.0,78,0.00,,---,0.00,VWS V14.01,2014-08-27 04:10:00,
2014-08-27 00:11:00,63.8,57.0,30.14,NNE,28,0.0,3.0,78,0.00,,---,0.00,VWS V14.01,2014-08-27 04:11:00,
2014-08-27 00:12:00,63.8,57.0,30.14,NNE,28,0.0,3.0,79,0.00,,---,0.00,VWS V14.01,2014-08-27 04:12:00,
2014-08-27 00:13:00,63.8,57.0,30.14,NE,44,1.7,3.0,79,0.00,,---,0.00,VWS V14.01,2014-08-27 04:13:00,
2014-08-27 00:14:00,64.5,56.4,30.14,NE,51,0.0,0.0,75,0.00,,---,0.00,VWS V14.01,2014-08-27 04:14:00,
2014-08-27 00:15:00,63.8,57.1,30.14,ENE,75,3.9,5.0,79,0.00,,---,0.00,VWS V14.01,2014-08-27 04:15:00,
2014-08-27 00:16:00,63.7,56.9,30.14,ENE,75,3.9,5.2,79,0.00,,---,0.00,VWS V14.01,2014-08-27 04:16:00,
2014-08-27 00:17:00,63.7,57.0,30.14,East,80,3.0,5.2,79,0.00,,---,0.00,VWS V14.01,2014-08-27 04:17:00,
2014-08-27 00:18:00,63.9,57.2,30.14,ENE,60,3.2,5.2,79,0.00,,---,0.00,VWS V14.01,2014-08-27 04:18:00,
2014-08-27 00:19:00,64.4,56.3,30.14,NE,51,0.0,0.0,75,0.00,,---,0.00,VWS V14.01,2014-08-27 04:19:00,
2014-08-27 00:20:00,63.7,57.0,30.14,NE,44,0.0,5.2,79,0.00,,---,0.00,VWS V14.01,2014-08-27 04:20:00,
2014-08-27 00:21:00,63.7,57.0,30.15,NE,44,0.0,5.2,79,0.00,,---,0.00,VWS V14.01,2014-08-27 04:21:00,
2014-08-27 00:22:00,63.7,57.0,30.15,NE,44,0.0,5.2,79,0.00,,---,0.00,VWS V14.01,2014-08-27 04:22:00,
2014-08-27 00:23:00,63.7,56.9,30.14,NE,44,0.0,5.2,79,0.00,,---,0.00,VWS V14.01,2014-08-27 04:23:00,
2014-08-27 00:24:00,63.8,57.0,30.14,NE,44,0.0,5.2,79,0.00,,---,0.00,VWS V14.01,2014-08-27 04:24:00,
2014-08-27 00:25:00,64.4,56.3,30.14,North,353,0.0,4.5,75,0.00,,---,0.00,VWS V14.01,2014-08-27 04:25:00,
2014-08-27 00:26:00,63.6,56.8,30.14,NE,44,0.0,5.2,79,0.00,,---,0.00,VWS V14.01,2014-08-27 04:26:00,
2014-08-27 00:27:00,63.6,56.8,30.14,NE,44,0.0,5.2,79,0.00,,---,0.00,VWS V14.01,2014-08-27 04:27:00,
2014-08-27 00:28:00,63.6,56.8,30.15,NE,44,0.0,5.2,79,0.00,,---,0.00,VWS V14.01,2014-08-27 04:28:00,
2014-08-27 00:29:00,63.6,56.9,30.15,NE,44,0.0,5.2,79,0.00,,---,0.00,VWS V14.01,2014-08-27 04:29:00,
2014-08-27 00:30:00,64.3,56.5,30.14,NE,34,0.0,4.5,76,0.00,,---,0.00,VWS V14.01,2014-08-27 04:30:00,
2014-08-27 00:31:00,63.5,56.8,30.14,NE,44,0.0,5.2,79,0.00,,---,0.00,VWS V14.01,2014-08-27 04:31:00,
2014-08-27 00:32:00,63.7,57.0,30.14,NE,44,0.0,5.2,79,0.00,,---,0.00,VWS V14.01,2014-08-27 04:32:00,
2014-08-27 00:33:00,63.5,56.8,30.14,NE,44,0.0,5.2,79,0.00,,---,0.00,VWS V14.01,2014-08-27 04:33:00,
2014-08-27 00:34:00,63.5,56.9,30.14,NE,44,0.0,5.2,79,0.00,,---,0.00,VWS V14.01,2014-08-27 04:34:00,
2014-08-27 00:35:00,64.3,56.6,30.14,NE,35,0.0,4.5,76,0.00,,---,0.00,VWS V14.01,2014-08-27 04:35:00,
2014-08-27 00:36:00,63.5,57.0,30.14,NE,44,0.0,5.2,79,0.00,,---,0.00,VWS V14.01,2014-08-27 04:36:00,
2014-08-27 00:37:00,63.5,56.9,30.14,NE,44,0.0,5.2,79,0.00,,---,0.00,VWS V14.01,2014-08-27 04:37:00,
2014-08-27 00:38:00,63.6,57.0,30.14,NE,44,0.0,5.2,79,0.00,,---,0.00,VWS V14.01,2014-08-27 04:38:00,
2014-08-27 00:39:00,63.4,56.8,30.14,NE,44,0.0,5.2,79,0.00,,---,0.00,VWS V14.01,2014-08-27 04:39:00,
2014-08-27 00:40:00,64.2,56.6,30.14,NE,35,0.0,4.5,76,0.00,,---,0.00,VWS V14.01,2014-08-27 04:40:00,
2014-08-27 00:41:00,63.5,57.0,30.14,NE,44,0.0,5.2,79,0.00,,---,0.00,VWS V14.01,2014-08-27 04:41:00,
2014-08-27 00:42:00,63.4,56.9,30.14,NE,44,0.0,5.2,79,0.00,,---,0.00,VWS V14.01,2014-08-27 04:42:00,
2014-08-27 00:43:00,63.3,56.8,30.14,NE,44,0.0,5.2,79,0.00,,---,0.00,VWS V14.01,2014-08-27 04:43:00,
2014-08-27 00:44:00,63.4,56.9,30.14,NE,44,0.0,5.2,79,0.00,,---,0.00,VWS V14.01,2014-08-27 04:44:00,
2014-08-27 00:45:00,64.1,56.7,30.14,NE,35,0.0,4.5,77,0.00,,---,0.00,VWS V14.01,2014-08-27 04:45:00,
2014-08-27 00:46:00,63.5,57.1,30.14,ENE,73,0.0,5.2,80,0.00,,---,0.00,VWS V14.01,2014-08-27 04:46:00,
2014-08-27 00:47:00,63.4,57.0,30.14,ENE,73,0.0,5.2,80,0.00,,---,0.00,VWS V14.01,2014-08-27 04:47:00,
2014-08-27 00:48:00,63.3,56.9,30.14,ENE,73,0.0,5.2,80,0.00,,---,0.00,VWS V14.01,2014-08-27 04:48:00,
2014-08-27 00:49:00,63.3,56.9,30.14,ENE,73,0.0,5.2,80,0.00,,---,0.00,VWS V14.01,2014-08-27 04:49:00,
2014-08-27 00:50:00,64.1,56.8,30.14,NE,35,0.0,4.5,77,0.00,,---,0.00,VWS V14.01,2014-08-27 04:50:00,
2014-08-27 00:51:00,63.4,57.0,30.13,ENE,73,0.0,5.2,80,0.00,,---,0.00,VWS V14.01,2014-08-27 04:51:00,
2014-08-27 00:52:00,63.3,57.0,30.13,ENE,73,0.0,5.2,80,0.00,,---,0.00,VWS V14.01,2014-08-27 04:52:00,
2014-08-27 00:53:00,63.3,57.0,30.14,ENE,73,0.0,5.2,80,0.00,,---,0.00,VWS V14.01,2014-08-27 04:53:00,
2014-08-27 00:54:00,63.3,57.0,30.14,ENE,59,5.2,6.3,80,0.00,,---,0.00,VWS V14.01,2014-08-27 04:54:00,
2014-08-27 00:55:00,63.4,57.1,30.14,NE,51,2.6,6.3,80,0.00,,---,0.00,VWS V14.01,2014-08-27 04:55:00,
2014-08-27 00:56:00,63.3,57.0,30.14,NE,51,3.2,6.3,80,0.00,,---,0.00,VWS V14.01,2014-08-27 04:56:00,
2014-08-27 00:57:00,63.3,57.0,30.14,NE,56,0.9,6.3,80,0.00,,---,0.00,VWS V14.01,2014-08-27 04:57:00,
2014-08-27 00:58:00,63.3,57.0,30.14,NE,56,0.0,6.3,80,0.00,,---,0.00,VWS V14.01,2014-08-27 04:58:00,
2014-08-27 00:59:00,63.3,57.0,30.14,NE,56,0.0,6.3,80,0.00,,---,0.00,VWS V14.01,2014-08-27 04:59:00,
2014-08-27 01:00:00,63.3,57.0,30.14,NE,56,0.0,0.0,80,0.00,,---,0.00,VWS V14.01,2014-08-27 05:00:00,
2014-08-27 01:01:00,63.3,57.0,30.14,NE,56,0.0,0.0,80,0.00,,---,0.00,VWS V14.01,2014-08-27 05:01:00,
2014-08-27 01:02:00,63.3,57.0,30.14,NE,56,0.0,0.0,80,0.00,,---,0.00,VWS V14.01,2014-08-27 05:02:00,
2014-08-27 01:03:00,63.3,57.0,30.14,NE,56,5.0,5.2,80,0.00,,---,0.00,VWS V14.01,2014-08-27 05:03:00,
2014-08-27 01:04:00,63.2,56.9,30.14,ENE,65,3.2,5.2,80,0.00,,---,0.00,VWS V14.01,2014-08-27 05:04:00,
2014-08-27 01:05:00,63.3,57.0,30.14,ENE,65,0.9,5.2,80,0.00,,---,0.00,VWS V14.01,2014-08-27 05:05:00,
2014-08-27 01:06:00,63.2,56.9,30.14,NE,53,0.0,5.2,80,0.00,,---,0.00,VWS V14.01,2014-08-27 05:06:00,
2014-08-27 01:07:00,63.1,56.8,30.14,NE,53,0.0,5.2,80,0.00,,---,0.00,VWS V14.01,2014-08-27 05:07:00,
2014-08-27 01:08:00,63.3,57.0,30.14,NE,53,0.0,5.2,80,0.00,,---,0.00,VWS V14.01,2014-08-27 05:08:00,
2014-08-27 01:09:00,63.2,57.0,30.14,NE,53,0.0,5.2,80,0.00,,---,0.00,VWS V14.01,2014-08-27 05:09:00,
2014-08-27 01:10:00,63.2,57.0,30.14,NE,53,0.0,5.2,80,0.00,,---,0.00,VWS V14.01,2014-08-27 05:10:00,
2014-08-27 01:11:00,63.3,57.1,30.14,NE,53,0.0,5.2,80,0.00,,---,0.00,VWS V14.01,2014-08-27 05:11:00,
2014-08-27 01:12:00,63.2,57.0,30.14,NE,34,0.9,5.2,80,0.00,,---,0.00,VWS V14.01,2014-08-27 05:12:00,
2014-08-27 01:13:00,63.2,57.0,30.14,NE,34,0.0,5.2,80,0.00,,---,0.00,VWS V14.01,2014-08-27 05:13:00,
2014-08-27 01:14:00,63.2,57.0,30.14,NE,34,0.0,5.2,80,0.00,,---,0.00,VWS V14.01,2014-08-27 05:14:00,
2014-08-27 01:15:00,63.2,57.0,30.14,NE,34,0.0,5.2,80,0.00,,---,0.00,VWS V14.01,2014-08-27 05:15:00,
2014-08-27 01:16:00,63.3,57.1,30.15,NE,34,0.0,5.2,80,0.00,,---,0.00,VWS V14.01,2014-08-27 05:16:00,
2014-08-27 01:17:00,63.2,57.1,30.15,NE,34,0.0,5.2,80,0.00,,---,0.00,VWS V14.01,2014-08-27 05:17:00,
2014-08-27 01:18:00,63.1,57.0,30.15,NE,34,0.0,5.2,80,0.00,,---,0.00,VWS V14.01,2014-08-27 05:18:00,
2014-08-27 01:19:00,63.3,57.2,30.15,NE,49,2.2,5.2,80,0.00,,---,0.00,VWS V14.01,2014-08-27 05:19:00,
2014-08-27 01:20:00,63.2,57.1,30.15,NNE,31,0.0,5.2,80,0.00,,---,0.00,VWS V14.01,2014-08-27 05:20:00,
2014-08-27 01:21:00,63.2,57.0,30.15,NNE,31,0.0,5.2,80,0.00,,---,0.00,VWS V14.01,2014-08-27 05:21:00,
2014-08-27 01:22:00,63.3,57.1,30.15,NNE,31,0.0,5.2,80,0.00,,---,0.00,VWS V14.01,2014-08-27 05:22:00,
2014-08-27 01:23:00,63.2,57.0,30.15,NNE,31,0.0,5.2,80,0.00,,---,0.00,VWS V14.01,2014-08-27 05:23:00,
2014-08-27 01:24:00,63.2,57.1,30.15,NNE,31,0.0,5.2,80,0.00,,---,0.00,VWS V14.01,2014-08-27 05:24:00,
2014-08-27 01:25:00,63.2,57.1,30.15,NNE,31,0.0,5.2,81,0.00,,---,0.00,VWS V14.01,2014-08-27 05:25:00,
2014-08-27 01:26:00,63.1,57.0,30.15,NE,42,4.8,5.2,81,0.00,,---,0.00,VWS V14.01,2014-08-27 05:26:00,
2014-08-27 01:27:00,63.2,57.1,30.15,NE,48,4.8,5.2,80,0.00,,---,0.00,VWS V14.01,2014-08-27 05:27:00,
2014-08-27 01:28:00,63.2,57.1,30.15,NE,46,4.7,5.8,81,0.00,,---,0.00,VWS V14.01,2014-08-27 05:28:00,
2014-08-27 01:29:00,63.2,57.1,30.15,NE,45,3.5,5.8,80,0.00,,---,0.00,VWS V14.01,2014-08-27 05:29:00,
2014-08-27 01:30:00,63.2,57.1,30.15,NE,39,3.0,5.8,81,0.00,,---,0.00,VWS V14.01,2014-08-27 05:30:00,
2014-08-27 01:31:00,63.2,57.2,30.15,NE,45,2.4,5.8,81,0.00,,---,0.00,VWS V14.01,2014-08-27 05:31:00,
2014-08-27 01:32:00,63.1,57.1,30.15,ENE,75,1.7,5.8,81,0.00,,---,0.00,VWS V14.01,2014-08-27 05:32:00,
2014-08-27 01:33:00,63.1,57.1,30.15,NNE,32,3.7,5.8,81,0.00,,---,0.00,VWS V14.01,2014-08-27 05:33:00,
2014-08-27 01:34:00,63.0,57.0,30.15,NE,42,4.1,5.8,81,0.00,,---,0.00,VWS V14.01,2014-08-27 05:34:00,
2014-08-27 01:35:00,63.2,57.1,30.15,NE,49,3.9,5.8,81,0.00,,---,0.00,VWS V14.01,2014-08-27 05:35:00,
2014-08-27 01:36:00,63.1,57.0,30.15,NE,53,1.5,5.8,81,0.00,,---,0.00,VWS V14.01,2014-08-27 05:36:00,
2014-08-27 01:37:00,63.2,57.1,30.15,NE,42,0.0,5.8,80,0.00,,---,0.00,VWS V14.01,2014-08-27 05:37:00,
2014-08-27 01:38:00,63.1,57.0,30.15,NE,42,0.0,5.8,80,0.00,,---,0.00,VWS V14.01,2014-08-27 05:38:00,
2014-08-27 01:39:00,63.1,57.0,30.15,NE,42,0.0,5.8,81,0.00,,---,0.00,VWS V14.01,2014-08-27 05:39:00,
2014-08-27 01:40:00,63.2,57.1,30.15,NE,42,0.0,5.8,81,0.00,,---,0.00,VWS V14.01,2014-08-27 05:40:00,
2014-08-27 01:41:00,63.2,57.1,30.15,NE,42,0.0,5.8,81,0.00,,---,0.00,VWS V14.01,2014-08-27 05:41:00,
2014-08-27 01:42:00,63.1,57.0,30.15,NE,42,0.0,5.8,80,0.00,,---,0.00,VWS V14.01,2014-08-27 05:42:00,
2014-08-27 01:43:00,63.1,57.0,30.15,NE,42,0.0,5.8,80,0.00,,---,0.00,VWS V14.01,2014-08-27 05:43:00,
2014-08-27 01:44:00,63.1,56.9,30.15,NE,42,0.0,5.8,80,0.00,,---,0.00,VWS V14.01,2014-08-27 05:44:00,
2014-08-27 01:45:00,63.1,57.0,30.15,NE,42,0.0,5.8,80,0.00,,---,0.00,VWS V14.01,2014-08-27 05:45:00,
2014-08-27 01:46:00,63.1,57.0,30.15,NE,42,0.0,5.8,80,0.00,,---,0.00,VWS V14.01,2014-08-27 05:46:00,
2014-08-27 01:47:00,63.1,57.0,30.15,NE,42,0.0,5.8,80,0.00,,---,0.00,VWS V14.01,2014-08-27 05:47:00,
2014-08-27 01:48:00,63.0,57.0,30.15,NE,42,0.0,5.8,81,0.00,,---,0.00,VWS V14.01,2014-08-27 05:48:00,
2014-08-27 01:49:00,63.1,57.0,30.15,NNE,22,1.9,5.8,81,0.00,,---,0.00,VWS V14.01,2014-08-27 05:49:00,
2014-08-27 01:50:00,63.2,57.1,30.15,NNE,31,2.8,5.8,81,0.00,,---,0.00,VWS V14.01,2014-08-27 05:50:00,
2014-08-27 01:51:00,63.0,57.0,30.15,NE,41,2.4,5.8,81,0.00,,---,0.00,VWS V14.01,2014-08-27 05:51:00,
2014-08-27 01:52:00,63.0,57.0,30.15,NE,34,2.8,5.8,81,0.00,,---,0.00,VWS V14.01,2014-08-27 05:52:00,
2014-08-27 01:53:00,63.1,57.1,30.15,NNE,20,1.7,5.8,81,0.00,,---,0.00,VWS V14.01,2014-08-27 05:53:00,
2014-08-27 01:54:00,63.0,57.0,30.15,ENE,58,3.5,5.8,81,0.00,,---,0.00,VWS V14.01,2014-08-27 05:54:00,
2014-08-27 01:55:00,62.9,56.9,30.15,NE,38,4.7,5.8,81,0.00,,---,0.00,VWS V14.01,2014-08-27 05:55:00,
2014-08-27 01:56:00,62.9,56.9,30.15,NE,44,4.7,5.8,81,0.00,,---,0.00,VWS V14.01,2014-08-27 05:56:00,
2014-08-27 01:57:00,62.9,56.9,30.15,NNE,17,3.5,5.8,81,0.00,,---,0.00,VWS V14.01,2014-08-27 05:57:00,
2014-08-27 01:58:00,62.9,56.8,30.15,NNE,28,5.8,5.8,80,0.00,,---,0.00,VWS V14.01,2014-08-27 05:58:00,
2014-08-27 01:59:00,62.9,56.8,30.15,NE,51,4.3,5.8,80,0.00,,---,0.00,VWS V14.01,2014-08-27 05:59:00,
2014-08-27 02:00:00,63.0,56.7,30.15,NE,55,4.7,5.8,80,0.00,,---,0.00,VWS V14.01,2014-08-27 06:00:00,
2014-08-27 02:01:00,63.0,56.6,30.15,North,8,5.0,6.2,80,0.00,,---,0.00,VWS V14.01,2014-08-27 06:01:00,
2014-08-27 02:02:00,63.1,56.6,30.15,NE,34,3.7,6.2,79,0.00,,---,0.00,VWS V14.01,2014-08-27 06:02:00,
2014-08-27 02:03:00,63.2,56.7,30.15,NNE,18,4.3,6.2,79,0.00,,---,0.00,VWS V14.01,2014-08-27 06:03:00,
2014-08-27 02:04:00,63.1,56.4,30.15,NNE,30,3.7,6.2,79,0.00,,---,0.00,VWS V14.01,2014-08-27 06:04:00,
2014-08-27 02:05:00,63.1,56.3,30.15,NE,34,2.8,6.2,79,0.00,,---,0.00,VWS V14.01,2014-08-27 06:05:00,
2014-08-27 02:06:00,63.3,56.5,30.15,NE,48,4.7,6.2,79,0.00,,---,0.00,VWS V14.01,2014-08-27 06:06:00,
2014-08-27 02:07:00,63.2,56.3,30.15,NNE,30,3.5,6.2,78,0.00,,---,0.00,VWS V14.01,2014-08-27 06:07:00,
2014-08-27 02:08:00,63.4,56.5,30.15,NNE,31,3.7,6.9,78,0.00,,---,0.00,VWS V14.01,2014-08-27 06:08:00,
2014-08-27 02:09:00,63.4,56.4,30.15,NE,34,5.8,6.9,78,0.00,,---,0.00,VWS V14.01,2014-08-27 06:09:00,
2014-08-27 02:10:00,63.5,56.4,30.15,NNE,13,3.7,6.9,78,0.00,,---,0.00,VWS V14.01,2014-08-27 06:10:00,
2014-08-27 02:11:00,63.4,56.2,30.15,NNE,31,4.1,6.9,78,0.00,,---,0.00,VWS V14.01,2014-08-27 06:11:00,
2014-08-27 02:12:00,63.5,56.3,30.15,ENE,63,5.4,6.9,78,0.00,,---,0.00,VWS V14.01,2014-08-27 06:12:00,
2014-08-27 02:13:00,63.6,56.4,30.15,NNE,31,6.5,6.9,77,0.00,,---,0.00,VWS V14.01,2014-08-27 06:13:00,
2014-08-27 02:14:00,63.6,56.3,30.15,North,10,3.7,7.5,77,0.00,,---,0.00,VWS V14.01,2014-08-27 06:14:00,
2014-08-27 02:15:00,63.6,56.2,30.15,NE,39,4.8,7.5,77,0.00,,---,0.00,VWS V14.01,2014-08-27 06:15:00,
2014-08-27 02:16:00,63.8,56.4,30.15,NE,53,3.7,7.5,77,0.00,,---,0.00,VWS V14.01,2014-08-27 06:16:00,
2014-08-27 02:17:00,63.9,56.5,30.15,NNE,25,2.2,7.5,77,0.00,,---,0.00,VWS V14.01,2014-08-27 06:17:00,
2014-08-27 02:18:00,63.9,56.5,30.15,NE,38,5.4,7.5,77,0.00,,---,0.00,VWS V14.01,2014-08-27 06:18:00,
2014-08-27 02:19:00,64.0,56.5,30.15,NE,46,5.8,7.5,77,0.00,,---,0.00,VWS V14.01,2014-08-27 06:19:00,
2014-08-27 02:20:00,63.9,56.3,30.15,ENE,58,4.3,7.5,76,0.00,,---,0.00,VWS V14.01,2014-08-27 06:20:00,
2014-08-27 02:21:00,64.0,56.4,30.15,NNE,28,4.1,7.5,76,0.00,,---,0.00,VWS V14.01,2014-08-27 06:21:00,
2014-08-27 02:22:00,64.0,56.4,30.15,NNE,27,3.0,7.5,76,0.00,,---,0.00,VWS V14.01,2014-08-27 06:22:00,
2014-08-27 02:23:00,64.0,56.4,30.15,NNE,13,4.5,7.5,76,0.00,,---,0.00,VWS V14.01,2014-08-27 06:23:00,
2014-08-27 02:24:00,64.1,56.5,30.15,NE,39,6.2,7.5,76,0.00,,---,0.00,VWS V14.01,2014-08-27 06:24:00,
2014-08-27 02:25:00,64.1,56.4,30.15,NE,48,7.1,10.1,76,0.00,,---,0.00,VWS V14.01,2014-08-27 06:25:00,
2014-08-27 02:26:00,64.2,56.5,30.15,NNE,30,5.4,10.1,76,0.00,,---,0.00,VWS V14.01,2014-08-27 06:26:00,
2014-08-27 02:27:00,64.2,56.5,30.15,NE,42,6.3,10.1,76,0.00,,---,0.00,VWS V14.01,2014-08-27 06:27:00,
2014-08-27 02:28:00,64.1,56.3,30.15,ENE,62,6.9,10.1,76,0.00,,---,0.00,VWS V14.01,2014-08-27 06:28:00,
2014-08-27 02:29:00,64.2,56.4,30.15,NE,41,8.9,12.9,76,0.00,,---,0.00,VWS V14.01,2014-08-27 06:29:00,
2014-08-27 02:30:00,64.2,56.4,30.15,ENE,59,8.6,12.9,76,0.00,,---,0.00,VWS V14.01,2014-08-27 06:30:00,
2014-08-27 02:31:00,64.3,56.5,30.15,NE,38,3.2,12.9,76,0.00,,---,0.00,VWS V14.01,2014-08-27 06:31:00,
2014-08-27 02:32:00,64.4,56.6,30.15,NE,37,5.8,12.9,76,0.00,,---,0.00,VWS V14.01,2014-08-27 06:32:00,
2014-08-27 02:33:00,64.4,56.6,30.15,NNE,31,3.0,12.9,76,0.00,,---,0.00,VWS V14.01,2014-08-27 06:33:00,
2014-08-27 02:34:00,64.4,56.6,30.15,NNE,18,3.0,12.9,76,0.00,,---,0.00,VWS V14.01,2014-08-27 06:34:00,
2014-08-27 02:35:00,64.4,56.6,30.15,NE,34,3.7,12.9,76,0.00,,---,0.00,VWS V14.01,2014-08-27 06:35:00,
2014-08-27 02:36:00,64.4,56.6,30.15,NNE,31,6.7,12.9,76,0.00,,---,0.00,VWS V14.01,2014-08-27 06:36:00,
2014-08-27 02:37:00,64.4,56.5,30.15,NE,46,5.0,12.9,76,0.00,,---,0.00,VWS V14.01,2014-08-27 06:37:00,
2014-08-27 02:38:00,64.4,56.4,30.15,ENE,77,7.1,12.9,75,0.00,,---,0.00,VWS V14.01,2014-08-27 06:38:00,
2014-08-27 02:39:00,64.5,56.6,30.15,NE,56,2.2,12.9,75,0.00,,---,0.00,VWS V14.01,2014-08-27 06:39:00,
2014-08-27 02:40:00,64.7,56.8,30.15,ENE,58,6.0,12.9,75,0.00,,---,0.00,VWS V14.01,2014-08-27 06:40:00,
2014-08-27 02:41:00,64.6,56.6,30.15,NE,38,6.3,12.9,75,0.00,,---,0.00,VWS V14.01,2014-08-27 06:41:00,
2014-08-27 02:42:00,64.7,56.7,30.15,NE,49,7.1,12.9,75,0.00,,---,0.00,VWS V14.01,2014-08-27 06:42:00,
2014-08-27 02:43:00,64.7,56.7,30.15,ENE,69,7.1,12.9,75,0.00,,---,0.00,VWS V14.01,2014-08-27 06:43:00,
2014-08-27 02:44:00,64.7,56.7,30.15,NE,39,4.8,12.9,75,0.00,,---,0.00,VWS V14.01,2014-08-27 06:44:00,
2014-08-27 02:45:00,64.6,56.6,30.15,ENE,68,5.4,12.9,75,0.00,,---,0.00,VWS V14.01,2014-08-27 06:45:00,
2014-08-27 02:46:00,64.7,56.6,30.15,NE,55,10.8,12.9,75,0.00,,---,0.00,VWS V14.01,2014-08-27 06:46:00,
2014-08-27 02:47:00,64.6,56.5,30.15,NNE,25,8.4,12.9,75,0.00,,---,0.00,VWS V14.01,2014-08-27 06:47:00,
2014-08-27 02:48:00,64.7,56.6,30.15,ENE,60,8.2,12.9,75,0.00,,---,0.00,VWS V14.01,2014-08-27 06:48:00,
2014-08-27 02:49:00,64.8,56.7,30.15,North,11,4.3,12.9,75,0.00,,---,0.00,VWS V14.01,2014-08-27 06:49:00,
2014-08-27 02:50:00,64.7,56.6,30.15,ENE,62,6.7,12.9,75,0.00,,---,0.00,VWS V14.01,2014-08-27 06:50:00,
2014-08-27 02:51:00,64.7,56.6,30.15,NE,37,7.5,12.9,75,0.00,,---,0.00,VWS V14.01,2014-08-27 06:51:00,
2014-08-27 02:52:00,64.8,56.7,30.15,NE,55,7.8,14.0,75,0.00,,---,0.00,VWS V14.01,2014-08-27 06:52:00,
2014-08-27 02:53:00,64.7,56.6,30.15,NE,45,9.7,14.0,75,0.00,,---,0.00,VWS V14.01,2014-08-27 06:53:00,
2014-08-27 02:54:00,64.8,56.7,30.15,East,82,12.7,14.0,75,0.00,,---,0.00,VWS V14.01,2014-08-27 06:54:00,
2014-08-27 02:55:00,64.8,56.7,30.15,NE,46,7.1,14.0,75,0.00,,---,0.00,VWS V14.01,2014-08-27 06:55:00,
2014-08-27 02:56:00,64.7,56.6,30.15,North,3,5.4,14.0,75,0.00,,---,0.00,VWS V14.01,2014-08-27 06:56:00,
2014-08-27 02:57:00,64.7,56.6,30.15,NE,51,8.2,14.0,75,0.00,,---,0.00,VWS V14.01,2014-08-27 06:57:00,
2014-08-27 02:58:00,64.7,56.6,30.15,North,8,6.9,14.0,75,0.00,,---,0.00,VWS V14.01,2014-08-27 06:58:00,
2014-08-27 02:59:00,64.7,56.6,30.15,ENE,65,6.7,14.0,75,0.00,,---,0.00,VWS V14.01,2014-08-27 06:59:00,
2014-08-27 03:00:00,64.7,56.6,30.15,NE,49,10.3,14.0,75,0.00,,---,0.00,VWS V14.01,2014-08-27 07:00:00,
2014-08-27 03:01:00,64.6,56.5,30.15,ENE,75,17.1,17.3,75,0.00,,---,0.00,VWS V14.01,2014-08-27 07:01:00,
2014-08-27 03:02:00,64.6,56.5,30.15,ENE,63,9.3,21.8,75,0.00,,---,0.00,VWS V14.01,2014-08-27 07:02:00,
2014-08-27 03:03:00,64.6,56.5,30.15,East,83,9.1,21.8,75,0.00,,---,0.00,VWS V14.01,2014-08-27 07:03:00,
2014-08-27 03:04:00,64.7,56.6,30.15,NNE,17,5.8,21.8,75,0.00,,---,0.00,VWS V14.01,2014-08-27 07:04:00,
2014-08-27 03:05:00,64.6,56.5,30.15,NE,46,10.6,21.8,75,0.00,,---,0.00,VWS V14.01,2014-08-27 07:05:00,
2014-08-27 03:06:00,64.6,56.5,30.15,ENE,65,7.1,21.8,75,0.00,,---,0.00,VWS V14.01,2014-08-27 07:06:00,
2014-08-27 03:07:00,64.7,56.6,30.15,ENE,68,8.4,21.8,75,0.00,,---,0.00,VWS V14.01,2014-08-27 07:07:00,
2014-08-27 03:08:00,64.7,56.6,30.15,NE,56,7.5,21.8,75,0.00,,---,0.00,VWS V14.01,2014-08-27 07:08:00,
2014-08-27 03:09:00,64.7,56.6,30.15,ENE,72,7.1,21.8,75,0.00,,---,0.00,VWS V14.01,2014-08-27 07:09:00,
2014-08-27 03:10:00,64.7,56.6,30.15,NE,41,12.3,21.8,75,0.00,,---,0.00,VWS V14.01,2014-08-27 07:10:00,
2014-08-27 03:11:00,64.7,56.6,30.15,East,82,8.2,21.8,75,0.00,,---,0.00,VWS V14.01,2014-08-27 07:11:00,
2014-08-27 03:12:00,64.8,56.8,30.15,NE,44,10.8,21.8,75,0.00,,---,0.00,VWS V14.01,2014-08-27 07:12:00,
2014-08-27 03:13:00,64.8,56.8,30.15,ENE,59,10.6,21.8,75,0.00,,---,0.00,VWS V14.01,2014-08-27 07:13:00,
2014-08-27 03:14:00,64.6,56.7,30.15,North,10,6.3,21.8,75,0.00,,---,0.00,VWS V14.01,2014-08-27 07:14:00,
2014-08-27 03:15:00,64.6,56.7,30.15,NE,44,8.4,21.8,75,0.00,,---,0.00,VWS V14.01,2014-08-27 07:15:00,
2014-08-27 03:16:00,64.7,56.8,30.15,NE,53,14.2,21.8,76,0.00,,---,0.00,VWS V14.01,2014-08-27 07:16:00,
2014-08-27 03:17:00,64.6,56.8,30.15,NE,53,8.9,21.8,76,0.00,,---,0.00,VWS V14.01,2014-08-27 07:17:00,
2014-08-27 03:18:00,64.8,57.0,30.15,ENE,58,9.5,21.8,76,0.00,,---,0.00,VWS V14.01,2014-08-27 07:18:00,
2014-08-27 03:19:00,64.6,56.8,30.15,NNE,21,6.0,21.8,76,0.00,,---,0.00,VWS V14.01,2014-08-27 07:19:00,
2014-08-27 03:20:00,64.7,57.0,30.15,East,83,11.2,21.8,76,0.00,,---,0.00,VWS V14.01,2014-08-27 07:20:00,
2014-08-27 03:21:00,64.6,56.9,30.15,NE,55,9.3,21.8,76,0.00,,---,0.00,VWS V14.01,2014-08-27 07:21:00,
2014-08-27 03:22:00,64.7,57.0,30.15,ENE,72,7.1,21.8,76,0.00,,---,0.00,VWS V14.01,2014-08-27 07:22:00,
2014-08-27 03:23:00,64.8,57.2,30.15,ENE,62,9.3,21.8,76,0.00,,---,0.00,VWS V14.01,2014-08-27 07:23:00,
2014-08-27 03:24:00,64.6,57.0,30.15,East,82,5.8,21.8,76,0.00,,---,0.00,VWS V14.01,2014-08-27 07:24:00,
2014-08-27 03:25:00,64.7,57.1,30.14,ENE,70,8.8,21.8,76,0.00,,---,0.00,VWS V14.01,2014-08-27 07:25:00,
2014-08-27 03:26:00,64.7,57.3,30.15,NE,49,12.5,21.8,77,0.00,,---,0.00,VWS V14.01,2014-08-27 07:26:00,
2014-08-27 03:27:00,64.7,57.2,30.15,NE,35,8.4,21.8,77,0.00,,---,0.00,VWS V14.01,2014-08-27 07:27:00,
2014-08-27 03:28:00,64.7,57.3,30.15,North,357,5.4,21.8,77,0.00,,---,0.00,VWS V14.01,2014-08-27 07:28:00,
2014-08-27 03:29:00,64.6,57.3,30.15,NE,35,6.9,21.8,77,0.00,,---,0.00,VWS V14.01,2014-08-27 07:29:00,
2014-08-27 03:30:00,64.7,57.4,30.14,ENE,62,7.6,21.8,77,0.00,,---,0.00,VWS V14.01,2014-08-27 07:30:00,
2014-08-27 03:31:00,64.7,57.5,30.14,East,97,13.2,21.8,77,0.00,,---,0.00,VWS V14.01,2014-08-27 07:31:00,
2014-08-27 03:32:00,64.7,57.5,30.14,NNE,27,8.2,21.8,77,0.00,,---,0.00,VWS V14.01,2014-08-27 07:32:00,
2014-08-27 03:33:00,64.6,57.5,30.14,NE,56,7.3,21.8,78,0.00,,---,0.00,VWS V14.01,2014-08-27 07:33:00,
2014-08-27 03:34:00,64.6,57.5,30.14,NE,56,13.2,21.8,78,0.00,,---,0.00,VWS V14.01,2014-08-27 07:34:00,
2014-08-27 03:35:00,64.5,57.4,30.14,NE,51,12.1,21.8,78,0.00,,---,0.00,VWS V14.01,2014-08-27 07:35:00,
2014-08-27 03:36:00,64.6,57.5,30.14,NE,45,8.4,21.8,78,0.00,,---,0.00,VWS V14.01,2014-08-27 07:36:00,
2014-08-27 03:37:00,64.6,57.5,30.14,NE,56,8.9,21.8,78,0.00,,---,0.00,VWS V14.01,2014-08-27 07:37:00,
2014-08-27 03:38:00,64.8,57.7,30.14,ESE,114,8.8,21.8,78,0.00,,---,0.00,VWS V14.01,2014-08-27 07:38:00,
2014-08-27 03:39:00,64.7,57.6,30.14,NNE,17,7.5,21.8,78,0.00,,---,0.00,VWS V14.01,2014-08-27 07:39:00,
2014-08-27 03:40:00,64.6,57.6,30.14,NNE,18,12.3,21.8,78,0.00,,---,0.00,VWS V14.01,2014-08-27 07:40:00,
2014-08-27 03:41:00,64.4,57.4,30.14,NE,49,11.6,21.8,78,0.00,,---,0.00,VWS V14.01,2014-08-27 07:41:00,
2014-08-27 03:42:00,64.5,57.4,30.14,NNE,24,10.4,21.8,78,0.00,,---,0.00,VWS V14.01,2014-08-27 07:42:00,
2014-08-27 03:43:00,64.6,57.6,30.14,ENE,66,6.9,21.8,78,0.00,,---,0.00,VWS V14.01,2014-08-27 07:43:00,
2014-08-27 03:44:00,64.5,57.5,30.14,ENE,63,10.1,21.8,78,0.00,,---,0.00,VWS V14.01,2014-08-27 07:44:00,
2014-08-27 03:45:00,64.6,57.6,30.15,NE,55,6.2,21.8,78,0.00,,---,0.00,VWS V14.01,2014-08-27 07:45:00,
2014-08-27 03:46:00,64.7,57.8,30.14,ENE,63,10.3,21.8,78,0.00,,---,0.00,VWS V14.01,2014-08-27 07:46:00,
2014-08-27 03:47:00,64.6,57.7,30.15,East,82,6.9,21.8,78,0.00,,---,0.00,VWS V14.01,2014-08-27 07:47:00,
2014-08-27 03:48:00,64.6,57.7,30.15,ENE,70,11.7,21.8,78,0.00,,---,0.00,VWS V14.01,2014-08-27 07:48:00,
2014-08-27 03:49:00,64.6,57.7,30.15,ENE,76,8.8,21.8,78,0.00,,---,0.00,VWS V14.01,2014-08-27 07:49:00,
2014-08-27 03:50:00,64.6,57.8,30.15,NNW,332,8.9,21.8,78,0.00,,---,0.00,VWS V14.01,2014-08-27 07:50:00,
2014-08-27 03:51:00,64.5,57.7,30.15,NNE,17,11.0,21.8,78,0.00,,---,0.00,VWS V14.01,2014-08-27 07:51:00,
2014-08-27 03:52:00,64.7,57.8,30.15,NNE,28,8.4,21.8,78,0.00,,---,0.00,VWS V14.01,2014-08-27 07:52:00,
2014-08-27 03:53:00,64.6,57.8,30.15,NE,45,8.2,21.8,79,0.00,,---,0.00,VWS V14.01,2014-08-27 07:53:00,
2014-08-27 03:54:00,64.7,57.9,30.15,ENE,75,5.6,21.8,79,0.00,,---,0.00,VWS V14.01,2014-08-27 07:54:00,
2014-08-27 03:55:00,64.6,57.8,30.15,NNE,28,7.8,21.8,79,0.00,,---,0.00,VWS V14.01,2014-08-27 07:55:00,
2014-08-27 03:56:00,64.4,57.6,30.15,ENE,68,10.1,21.8,79,0.00,,---,0.00,VWS V14.01,2014-08-27 07:56:00,
2014-08-27 03:57:00,64.6,57.8,30.15,East,96,14.9,21.8,79,0.00,,---,0.00,VWS V14.01,2014-08-27 07:57:00,
2014-08-27 03:58:00,64.5,57.7,30.15,NE,55,12.7,21.8,79,0.00,,---,0.00,VWS V14.01,2014-08-27 07:58:00,
2014-08-27 03:59:00,64.5,57.7,30.15,ENE,75,10.8,21.8,79,0.00,,---,0.00,VWS V14.01,2014-08-27 07:59:00,
2014-08-27 04:00:00,64.6,57.8,30.15,ENE,58,8.2,21.8,78,0.00,,---,0.00,VWS V14.01,2014-08-27 08:00:00,
2014-08-27 04:01:00,64.4,57.6,30.15,ENE,59,12.1,16.2,79,0.00,,---,0.00,VWS V14.01,2014-08-27 08:01:00,
2014-08-27 04:02:00,64.7,57.9,30.15,NE,39,8.9,16.2,78,0.00,,---,0.00,VWS V14.01,2014-08-27 08:02:00,
2014-08-27 04:03:00,64.7,57.9,30.15,ENE,65,11.0,26.8,78,0.00,,---,0.00,VWS V14.01,2014-08-27 08:03:00,
2014-08-27 04:04:00,64.7,57.9,30.15,NE,41,9.3,26.8,78,0.00,,---,0.00,VWS V14.01,2014-08-27 08:04:00,
2014-08-27 04:05:00,64.6,57.8,30.15,ENE,63,16.6,26.8,79,0.00,,---,0.00,VWS V14.01,2014-08-27 08:05:00,
2014-08-27 04:06:00,64.5,57.7,30.14,NE,44,10.8,26.8,79,0.00,,---,0.00,VWS V14.01,2014-08-27 08:06:00,
2014-08-27 04:07:00,64.7,57.9,30.15,NNE,31,8.2,26.8,79,0.00,,---,0.00,VWS V14.01,2014-08-27 08:07:00,
2014-08-27 04:08:00,64.7,57.9,30.15,ENE,66,8.4,26.8,79,0.00,,---,0.00,VWS V14.01,2014-08-27 08:08:00,
2014-08-27 04:09:00,64.6,57.8,30.15,NE,42,7.5,26.8,79,0.00,,---,0.00,VWS V14.01,2014-08-27 08:09:00,
2014-08-27 04:10:00,64.5,57.8,30.15,NE,38,8.4,26.8,79,0.00,,---,0.00,VWS V14.01,2014-08-27 08:10:00,
2014-08-27 04:11:00,64.7,58.0,30.14,NE,46,9.5,26.8,79,0.00,,---,0.00,VWS V14.01,2014-08-27 08:11:00,
2014-08-27 04:12:00,64.4,57.7,30.15,NE,44,6.3,26.8,79,0.00,,---,0.00,VWS V14.01,2014-08-27 08:12:00,
2014-08-27 04:13:00,64.6,57.9,30.14,North,352,6.7,26.8,79,0.00,,---,0.00,VWS V14.01,2014-08-27 08:13:00,
2014-08-27 04:14:00,64.4,57.8,30.15,NE,38,5.6,26.8,79,0.00,,---,0.00,VWS V14.01,2014-08-27 08:14:00,
2014-08-27 04:15:00,64.4,57.8,30.15,NE,48,5.8,26.8,79,0.00,,---,0.00,VWS V14.01,2014-08-27 08:15:00,
2014-08-27 04:16:00,64.3,57.7,30.15,NNE,31,5.2,26.8,79,0.00,,---,0.00,VWS V14.01,2014-08-27 08:16:00,
2014-08-27 04:17:00,64.2,57.7,30.15,NE,56,8.0,26.8,79,0.00,,---,0.00,VWS V14.01,2014-08-27 08:17:00,
2014-08-27 04:18:00,64.3,57.8,30.15,NNE,25,7.3,26.8,79,0.00,,---,0.00,VWS V14.01,2014-08-27 08:18:00,
2014-08-27 04:19:00,64.3,57.8,30.15,NNE,32,3.9,26.8,80,0.00,,---,0.00,VWS V14.01,2014-08-27 08:19:00,
2014-08-27 04:20:00,64.3,57.8,30.15,ENE,60,4.5,26.8,79,0.00,,---,0.00,VWS V14.01,2014-08-27 08:20:00,
2014-08-27 04:21:00,64.3,57.8,30.15,NNE,18,7.5,26.8,79,0.00,,---,0.00,VWS V14.01,2014-08-27 08:21:00,
2014-08-27 04:22:00,64.2,57.8,30.15,East,96,7.6,26.8,80,0.00,,---,0.00,VWS V14.01,2014-08-27 08:22:00,
2014-08-27 04:23:00,64.2,57.7,30.14,NNE,20,3.0,26.8,80,0.00,,---,0.00,VWS V14.01,2014-08-27 08:23:00,
2014-08-27 04:24:00,64.3,57.8,30.14,NNE,30,4.7,26.8,80,0.00,,---,0.00,VWS V14.01,2014-08-27 08:24:00,
2014-08-27 04:25:00,64.2,57.8,30.14,NNE,21,4.7,26.8,80,0.00,,---,0.00,VWS V14.01,2014-08-27 08:25:00,
2014-08-27 04:26:00,64.2,57.8,30.14,NNW,340,3.5,26.8,80,0.00,,---,0.00,VWS V14.01,2014-08-27 08:26:00,
2014-08-27 04:27:00,64.1,57.7,30.15,NE,39,2.2,26.8,80,0.00,,---,0.00,VWS V14.01,2014-08-27 08:27:00,
2014-08-27 04:28:00,64.1,57.7,30.14,NNE,21,0.0,26.8,80,0.00,,---,0.00,VWS V14.01,2014-08-27 08:28:00,
2014-08-27 04:29:00,64.2,57.8,30.15,NE,34,3.2,26.8,80,0.00,,---,0.00,VWS V14.01,2014-08-27 08:29:00,
2014-08-27 04:30:00,64.0,57.6,30.14,North,10,6.7,26.8,80,0.00,,---,0.00,VWS V14.01,2014-08-27 08:30:00,
2014-08-27 04:31:00,64.1,57.7,30.15,North,7,5.0,26.8,80,0.00,,---,0.00,VWS V14.01,2014-08-27 08:31:00,
2014-08-27 04:32:00,64.1,57.7,30.15,NNE,24,4.5,26.8,80,0.00,,---,0.00,VWS V14.01,2014-08-27 08:32:00,
2014-08-27 04:33:00,64.0,57.7,30.15,North,11,5.4,26.8,80,0.00,,---,0.00,VWS V14.01,2014-08-27 08:33:00,
2014-08-27 04:34:00,64.1,57.8,30.15,NNE,13,4.1,26.8,80,0.00,,---,0.00,VWS V14.01,2014-08-27 08:34:00,
2014-08-27 04:35:00,64.0,57.7,30.15,NNE,25,4.7,26.8,80,0.00,,---,0.00,VWS V14.01,2014-08-27 08:35:00,
2014-08-27 04:36:00,64.0,57.7,30.15,NE,51,6.3,26.8,80,0.00,,---,0.00,VWS V14.01,2014-08-27 08:36:00,
2014-08-27 04:37:00,63.9,57.6,30.15,NNE,20,5.4,26.8,80,0.00,,---,0.00,VWS V14.01,2014-08-27 08:37:00,
2014-08-27 04:38:00,64.1,57.8,30.15,NE,46,0.0,26.8,80,0.00,,---,0.00,VWS V14.01,2014-08-27 08:38:00,
2014-08-27 04:39:00,64.0,57.8,30.15,East,80,5.2,26.8,80,0.00,,---,0.00,VWS V14.01,2014-08-27 08:39:00,
2014-08-27 04:40:00,64.0,57.8,30.15,NE,37,4.3,26.8,80,0.00,,---,0.00,VWS V14.01,2014-08-27 08:40:00,
2014-08-27 04:41:00,64.0,57.9,30.15,NNE,32,9.1,26.8,80,0.00,,---,0.00,VWS V14.01,2014-08-27 08:41:00,
2014-08-27 04:42:00,64.1,58.0,30.15,NNE,31,2.6,26.8,80,0.00,,---,0.00,VWS V14.01,2014-08-27 08:42:00,
2014-08-27 04:43:00,63.9,57.8,30.15,NE,52,6.3,26.8,80,0.00,,---,0.00,VWS V14.01,2014-08-27 08:43:00,
2014-08-27 04:44:00,63.9,57.8,30.15,North,0,3.5,26.8,80,0.00,,---,0.00,VWS V14.01,2014-08-27 08:44:00,
2014-08-27 04:45:00,63.9,57.8,30.15,NE,48,3.5,26.8,81,0.00,,---,0.00,VWS V14.01,2014-08-27 08:45:00,
2014-08-27 04:46:00,64.0,57.9,30.15,NE,53,6.3,26.8,81,0.00,,---,0.00,VWS V14.01,2014-08-27 08:46:00,
2014-08-27 04:47:00,64.0,58.0,30.15,ENE,69,1.9,26.8,81,0.00,,---,0.00,VWS V14.01,2014-08-27 08:47:00,
2014-08-27 04:48:00,63.9,58.0,30.15,East,79,12.9,26.8,81,0.00,,---,0.00,VWS V14.01,2014-08-27 08:48:00,
2014-08-27 04:49:00,64.0,58.1,30.15,NE,34,5.0,26.8,81,0.00,,---,0.00,VWS V14.01,2014-08-27 08:49:00,
2014-08-27 04:50:00,64.0,58.1,30.15,NE,39,8.0,26.8,81,0.00,,---,0.00,VWS V14.01,2014-08-27 08:50:00,
2014-08-27 04:51:00,63.9,58.0,30.15,NE,37,3.0,26.8,81,0.00,,---,0.00,VWS V14.01,2014-08-27 08:51:00,
2014-08-27 04:52:00,63.9,58.0,30.15,NE,35,2.2,26.8,81,0.00,,---,0.00,VWS V14.01,2014-08-27 08:52:00,
2014-08-27 04:53:00,63.9,58.0,30.15,East,82,2.8,26.8,81,0.00,,---,0.00,VWS V14.01,2014-08-27 08:53:00,
2014-08-27 04:54:00,63.9,58.1,30.15,ENE,65,11.0,26.8,81,0.00,,---,0.00,VWS V14.01,2014-08-27 08:54:00,
2014-08-27 04:55:00,63.9,58.1,30.15,ENE,70,8.2,26.8,81,0.00,,---,0.00,VWS V14.01,2014-08-27 08:55:00,
2014-08-27 04:56:00,63.9,58.2,30.15,NNE,21,12.1,26.8,82,0.00,,---,0.00,VWS V14.01,2014-08-27 08:56:00,
2014-08-27 04:57:00,63.9,58.1,30.15,North,7,4.1,26.8,82,0.00,,---,0.00,VWS V14.01,2014-08-27 08:57:00,
2014-08-27 04:58:00,63.9,58.1,30.15,SE,131,8.2,26.8,81,0.00,,---,0.00,VWS V14.01,2014-08-27 08:58:00,
2014-08-27 04:59:00,63.8,58.0,30.15,ENE,60,7.5,26.8,81,0.00,,---,0.00,VWS V14.01,2014-08-27 08:59:00,
2014-08-27 05:00:00,63.9,58.1,30.15,NE,39,6.3,26.8,81,0.00,,---,0.00,VWS V14.01,2014-08-27 09:00:00,
2014-08-27 05:01:00,64.0,58.1,30.15,NE,38,1.9,6.3,81,0.00,,---,0.00,VWS V14.01,2014-08-27 09:01:00,
2014-08-27 05:02:00,63.9,58.1,30.15,NNE,31,5.6,14.4,81,0.00,,---,0.00,VWS V14.01,2014-08-27 09:02:00,
2014-08-27 05:03:00,64.0,58.2,30.15,ENE,60,8.0,14.4,81,0.00,,---,0.00,VWS V14.01,2014-08-27 09:03:00,
2014-08-27 05:04:00,64.0,58.2,30.15,NE,55,10.3,14.4,81,0.00,,---,0.00,VWS V14.01,2014-08-27 09:04:00,
2014-08-27 05:05:00,63.9,58.1,30.15,NNE,31,8.6,14.4,81,0.00,,---,0.00,VWS V14.01,2014-08-27 09:05:00,
2014-08-27 05:06:00,63.9,58.0,30.15,NE,53,4.7,14.4,81,0.00,,---,0.00,VWS V14.01,2014-08-27 09:06:00,
2014-08-27 05:07:00,63.9,58.0,30.15,NE,49,6.5,14.4,81,0.00,,---,0.00,VWS V14.01,2014-08-27 09:07:00,
2014-08-27 05:08:00,64.0,58.2,30.15,East,83,6.2,14.4,81,0.00,,---,0.00,VWS V14.01,2014-08-27 09:08:00,
2014-08-27 05:09:00,64.0,58.1,30.15,East,91,11.2,15.8,81,0.00,,---,0.00,VWS V14.01,2014-08-27 09:09:00,
2014-08-27 05:10:00,64.0,58.1,30.15,East,84,3.2,15.8,81,0.00,,---,0.00,VWS V14.01,2014-08-27 09:10:00,
2014-08-27 05:11:00,63.9,58.0,30.15,ENE,60,9.1,15.8,81,0.00,,---,0.00,VWS V14.01,2014-08-27 09:11:00,
2014-08-27 05:12:00,64.1,58.2,30.15,ENE,60,9.9,15.8,81,0.00,,---,0.00,VWS V14.01,2014-08-27 09:12:00,
2014-08-27 05:13:00,64.1,58.2,30.15,NE,38,7.3,15.8,81,0.00,,---,0.00,VWS V14.01,2014-08-27 09:13:00,
2014-08-27 05:14:00,64.1,58.2,30.15,NE,49,8.6,15.8,81,0.00,,---,0.00,VWS V14.01,2014-08-27 09:14:00,
2014-08-27 05:15:00,64.0,58.1,30.15,East,80,7.5,15.8,81,0.00,,---,0.00,VWS V14.01,2014-08-27 09:15:00,
2014-08-27 05:16:00,64.2,58.3,30.15,NE,55,9.1,15.8,81,0.00,,---,0.00,VWS V14.01,2014-08-27 09:16:00,
2014-08-27 05:17:00,64.1,58.2,30.15,ENE,73,8.9,15.8,81,0.00,,---,0.00,VWS V14.01,2014-08-27 09:17:00,
2014-08-27 05:18:00,64.0,58.1,30.15,NE,45,12.7,15.8,81,0.00,,---,0.00,VWS V14.01,2014-08-27 09:18:00,
2014-08-27 05:19:00,64.2,58.3,30.15,NE,52,9.9,15.8,81,0.00,,---,0.00,VWS V14.01,2014-08-27 09:19:00,
2014-08-27 05:20:00,64.0,58.1,30.15,NNE,24,11.0,15.8,81,0.00,,---,0.00,VWS V14.01,2014-08-27 09:20:00,
2014-08-27 05:21:00,64.0,58.1,30.15,ENE,65,13.4,16.4,81,0.00,,---,0.00,VWS V14.01,2014-08-27 09:21:00,
2014-08-27 05:22:00,64.1,58.1,30.15,NE,53,6.2,16.4,81,0.00,,---,0.00,VWS V14.01,2014-08-27 09:22:00,
2014-08-27 05:23:00,64.1,58.1,30.15,East,90,8.4,16.4,81,0.00,,---,0.00,VWS V14.01,2014-08-27 09:23:00,
2014-08-27 05:24:00,64.1,58.2,30.15,NE,44,9.7,16.4,81,0.00,,---,0.00,VWS V14.01,2014-08-27 09:24:00,
2014-08-27 05:25:00,64.1,58.1,30.15,ENE,77,8.6,16.4,81,0.00,,---,0.00,VWS V14.01,2014-08-27 09:25:00,
2014-08-27 05:26:00,64.1,58.2,30.15,ENE,75,13.2,16.4,81,0.00,,---,0.00,VWS V14.01,2014-08-27 09:26:00,
2014-08-27 05:27:00,64.2,58.2,30.15,NE,55,8.4,16.4,81,0.00,,---,0.00,VWS V14.01,2014-08-27 09:27:00,
2014-08-27 05:28:00,64.1,58.1,30.15,ENE,70,11.9,16.4,81,0.00,,---,0.00,VWS V14.01,2014-08-27 09:28:00,
2014-08-27 05:29:00,64.2,58.2,30.15,ENE,65,4.5,16.4,81,0.00,,---,0.00,VWS V14.01,2014-08-27 09:29:00,
2014-08-27 05:30:00,64.2,58.2,30.15,NE,45,11.0,16.4,81,0.00,,---,0.00,VWS V14.01,2014-08-27 09:30:00,
2014-08-27 05:31:00,64.1,58.1,30.15,NNE,21,6.0,16.4,81,0.00,,---,0.00,VWS V14.01,2014-08-27 09:31:00,
2014-08-27 05:32:00,64.1,58.1,30.15,ENE,70,6.0,16.4,81,0.00,,---,0.00,VWS V14.01,2014-08-27 09:32:00,
2014-08-27 05:33:00,64.1,58.1,30.15,ENE,62,6.5,16.4,81,0.00,,---,0.00,VWS V14.01,2014-08-27 09:33:00,
2014-08-27 05:34:00,64.1,58.2,30.15,East,93,9.1,16.4,81,0.00,,---,0.00,VWS V14.01,2014-08-27 09:34:00,
2014-08-27 05:35:00,64.1,58.1,30.15,NE,52,8.9,16.4,81,0.00,,---,0.00,VWS V14.01,2014-08-27 09:35:00,
2014-08-27 05:36:00,64.1,58.1,30.15,NE,35,10.8,16.4,81,0.00,,---,0.00,VWS V14.01,2014-08-27 09:36:00,
2014-08-27 05:37:00,64.1,58.1,30.15,NE,51,3.2,16.4,81,0.00,,---,0.00,VWS V14.01,2014-08-27 09:37:00,
2014-08-27 05:38:00,64.0,58.0,30.15,SE,141,6.2,16.4,81,0.00,,---,0.00,VWS V14.01,2014-08-27 09:38:00,
2014-08-27 05:39:00,64.0,58.0,30.15,NE,35,7.8,17.9,81,0.00,,---,0.00,VWS V14.01,2014-08-27 09:39:00,
2014-08-27 05:40:00,64.0,58.0,30.15,East,82,11.7,17.9,81,0.00,,---,0.00,VWS V14.01,2014-08-27 09:40:00,
2014-08-27 05:41:00,64.1,58.0,30.15,ENE,65,7.3,17.9,81,0.00,,---,0.00,VWS V14.01,2014-08-27 09:41:00,
2014-08-27 05:42:00,64.0,58.0,30.15,East,79,4.5,17.9,81,0.00,,---,0.00,VWS V14.01,2014-08-27 09:42:00,
2014-08-27 05:43:00,64.1,58.0,30.15,SSW,200,4.7,17.9,81,0.00,,---,0.00,VWS V14.01,2014-08-27 09:43:00,
2014-08-27 05:44:00,64.0,57.9,30.15,NE,37,10.8,17.9,80,0.00,,---,0.00,VWS V14.01,2014-08-27 09:44:00,
2014-08-27 05:45:00,64.0,57.9,30.15,SE,129,6.5,17.9,80,0.00,,---,0.00,VWS V14.01,2014-08-27 09:45:00,
2014-08-27 05:46:00,63.9,57.8,30.15,ENE,66,10.1,17.9,80,0.00,,---,0.00,VWS V14.01,2014-08-27 09:46:00,
2014-08-27 05:47:00,64.0,57.8,30.15,ENE,65,7.6,17.9,80,0.00,,---,0.00,VWS V14.01,2014-08-27 09:47:00,
2014-08-27 05:48:00,64.0,57.8,30.15,NE,34,5.8,17.9,80,0.00,,---,0.00,VWS V14.01,2014-08-27 09:48:00,
2014-08-27 05:49:00,63.9,57.7,30.15,East,100,4.1,17.9,80,0.00,,---,0.00,VWS V14.01,2014-08-27 09:49:00,
2014-08-27 05:50:00,63.9,57.7,30.15,ENE,59,11.6,17.9,80,0.00,,---,0.00,VWS V14.01,2014-08-27 09:50:00,
2014-08-27 05:51:00,64.0,57.8,30.15,ENE,58,3.0,17.9,80,0.00,,---,0.00,VWS V14.01,2014-08-27 09:51:00,
2014-08-27 05:52:00,63.9,57.8,30.15,NE,48,6.5,17.9,80,0.00,,---,0.00,VWS V14.01,2014-08-27 09:52:00,
2014-08-27 05:53:00,64.0,57.8,30.15,NNE,21,7.5,17.9,80,0.00,,---,0.00,VWS V14.01,2014-08-27 09:53:00,
2014-08-27 05:54:00,63.9,57.8,30.15,NE,48,11.6,17.9,80,0.00,,---,0.00,VWS V14.01,2014-08-27 09:54:00,
2014-08-27 05:55:00,64.0,58.0,30.15,ENE,75,2.1,17.9,81,0.00,,---,0.00,VWS V14.01,2014-08-27 09:55:00,
2014-08-27 05:56:00,63.9,57.9,30.15,NE,52,7.6,17.9,81,0.00,,---,0.00,VWS V14.01,2014-08-27 09:56:00,